Home > Weather > Incheon > Past weeks

Flag for South Korea Past Weather in Incheon, South Korea — Yesterday and Last 2 Weeks

Now
73 °F

Clear.


Feels Like: 77 °F
Forecast: 62 / 76 °F
Wind: 9 mph from Northwest

Location: Incheon International Airport

Current Time: May 30, 2016 at 12:06:03 PM

Latest Report: May 30, 2016 at 11:30 AM


Visibility: 4 mi

Pressure: 29.77 "Hg

Humidity: 53%

Dew Point: 55 °F

Location of IncheonLocation

Past Weather in Incheon — Graph

°F

Incheon Temperature Yesterday

Maximum temperature yesterday: 75 °F (at 2:30 PM)
Minimum temperature yesterday: 59 °F (at 12:30 AM)
Average temperature yesterday: 65 °F

High & Low Weather Summary for the Past Weeks

 TemperatureHumidityPressure
High84 °F (May 19, 1:00 PM)94% (May 15, 4:30 PM)30.12 "Hg (May 15, 4:30 PM)
Low50 °F (May 17, 3:00 AM)12% (May 21, 2:00 PM)29.65 "Hg (May 15, 4:30 PM)
Average65 °F63%29.89 "Hg
* Reported May 15 11:00 AM — May 30 11:00 AM, Incheon, Weather by CustomWeather, © 2016

Note: Actual official high and low records may vary slightly from our data, if they occured in-between our weather recording intervals... More about our weather records

Advertising

Incheon Weather History for the Previous 24 Hours

Scroll right to see more
 ConditionsComfort  
Time TempWeatherWind HumidityBarometerVisibility
11:00 AM
Mon, May 30
73 °FClear.7 mph53%29.77 "Hg4 mi
10:30 AM72 °FHaze.12 mph61%29.77 "Hg2 mi
10:00 AM70 °FHaze.10 mph64%29.77 "Hg2 mi
9:30 AM68 °FHaze.8 mph69%29.77 "Hg2 mi
9:00 AM68 °FHaze.7 mph69%29.77 "Hg2 mi
8:30 AM68 °FFog.7 mph69%29.77 "Hg2 mi
8:00 AM66 °FFog.6 mph73%29.77 "Hg2 mi
7:30 AM64 °FFog.5 mph78%29.77 "Hg1 mi
7:00 AM64 °FFog.7 mph78%29.74 "Hg1 mi
6:30 AM63 °FFog.5 mph83%29.74 "Hg1 mi
6:00 AM63 °FFog.14 mph83%29.74 "Hg1 mi
5:30 AM61 °FFog.9 mph88%29.71 "Hg1 mi
5:00 AM61 °FFog.6 mph88%29.71 "Hg1 mi
4:30 AM63 °FFog.5 mph83%29.71 "Hg1 mi
4:00 AM63 °FFog.5 mph83%29.71 "Hg1 mi
3:30 AM63 °FFog.5 mph83%29.71 "Hg2 mi
3:00 AM63 °FFog.8 mph77%29.71 "Hg2 mi
2:30 AM63 °FFog.7 mph77%29.71 "Hg2 mi
2:00 AM63 °FFog.8 mph77%29.68 "Hg2 mi
1:30 AM64 °FFog.5 mph73%29.68 "Hg2 mi
1:00 AM63 °FFog.8 mph77%29.68 "Hg2 mi
12:30 AM64 °FFog.10 mph78%29.68 "Hg3 mi
12:00 AM64 °FFog.9 mph73%29.68 "Hg3 mi
11:30 PM
Sun, May 29
64 °FFog.8 mph73%29.68 "Hg3 mi
11:00 PM64 °FFog.12 mph78%29.68 "Hg3 mi
10:30 PM66 °FHaze.12 mph73%29.68 "Hg3 mi
10:00 PM66 °FHaze.9 mph73%29.68 "Hg3 mi
9:30 PM66 °FHaze.5 mph68%29.68 "Hg3 mi
9:00 PM66 °FHaze.3 mph73%29.65 "Hg3 mi
8:30 PM66 °FHaze.9 mph73%29.65 "Hg3 mi
8:00 PM66 °FHaze.9 mph73%29.65 "Hg3 mi
7:30 PM66 °FHaze.9 mph68%29.65 "Hg3 mi
7:00 PM66 °FClear.9 mph68%29.65 "Hg4 mi
6:30 PM68 °FSunny.12 mph60%29.65 "Hg10 mi
6:00 PM70 °FSunny.13 mph50%29.65 "Hg10 mi
5:30 PM72 °FSunny.13 mph44%29.65 "Hg10 mi
5:00 PM72 °FSunny.13 mph50%29.65 "Hg10 mi
4:30 PM70 °FSunny.16 mph57%29.65 "Hg10 mi
4:00 PM72 °FSunny.16 mph53%29.65 "Hg10 mi
3:30 PM72 °FSunny.15 mph50%29.65 "Hg10 mi
3:00 PM73 °FSunny.13 mph44%29.65 "Hg10 mi
2:30 PM75 °FSunny.14 mph41%29.65 "Hg10 mi
2:00 PM73 °FPassing clouds.10 mph50%29.65 "HgN/A
1:30 PM73 °FPassing clouds.12 mph47%29.65 "HgN/A
1:00 PM72 °FPassing clouds.13 mph50%29.68 "HgN/A
12:30 PM72 °FPassing clouds.6 mph57%29.68 "HgN/A
12:00 PM72 °FPassing clouds.5 mph50%29.68 "HgN/A
Weather by CustomWeather, © 2016

See weather overviewHow to use our weather pages